Location: Albany
(35.0000°S, 118.0000°E)
Time: 05:26:13
(UTC-04:00)

ERS-1 Rocket - Visible Passes

Search period start: 31 July 2014 00:00
Search period end: 10 August 2014 00:00
Orbit: 755 x 760 km, 98.7° (Epoch: 31 July)

Date Brightness Start Highest point End Pass type
(mag) Time Alt. Az. Time Alt. Az. Time Alt. Az.
31 Jul 4.5 07:58:01 27° NNW 07:58:01 27° NNW 08:00:14 10° NNW visible
31 Jul 6.0 17:25:59 10° ESE 17:26:58 11° ESE 17:27:57 10° SE visible
01 Aug 4.3 07:18:29 26° NNE 07:18:29 26° NNE 07:20:54 10° N visible
01 Aug 4.4 18:21:27 10° NE 18:26:08 40° ESE 18:30:52 10° S visible
02 Aug 4.8 06:38:57 13° ENE 06:38:57 13° ENE 06:40:01 10° NE visible
02 Aug 5.0 08:19:00 21° NW 08:19:00 21° NW 08:20:45 10° NW visible
02 Aug 5.7 17:44:17 10° ENE 17:47:29 17° ESE 17:50:42 10° SSE visible
03 Aug 4.2 07:39:28 30° N 07:39:28 30° N 07:42:01 10° N visible
04 Aug 4.4 06:59:56 20° NE 06:59:56 20° NE 07:02:04 10° NNE visible
04 Aug 5.5 08:39:58 15° WNW 08:39:58 15° WNW 08:40:57 10° NW visible
04 Aug 5.1 18:03:53 10° NE 18:08:03 27° ESE 18:12:16 10° SSE visible
05 Aug 4.5 08:00:26 29° NNW 08:00:26 29° NNW 08:02:48 10° NNW visible
05 Aug 6.0 17:28:08 10° ESE 17:29:31 11° ESE 17:30:55 10° SE visible
06 Aug 4.1 07:20:54 28° NNE 07:20:54 28° NNE 07:23:32 10° N visible
06 Aug 4.3 18:23:58 10° NE 18:28:42 42° ESE 18:33:29 10° S visible
07 Aug 4.7 06:41:22 14° ENE 06:41:22 14° ENE 06:42:45 10° NE visible
07 Aug 5.0 08:21:24 22° NW 08:21:24 22° NW 08:23:18 10° NW visible
07 Aug 5.7 17:46:43 10° ENE 17:50:02 18° ESE 17:53:22 10° SSE visible
08 Aug 4.0 07:41:51 33° N 07:41:51 33° N 07:44:36 10° N visible
09 Aug 4.3 07:02:19 22° NE 07:02:19 22° NE 07:04:44 10° NNE visible
09 Aug 5.5 08:42:21 16° WNW 08:42:21 16° WNW 08:43:27 10° NW visible
09 Aug 5.1 18:06:23 10° NE 18:10:37 28° ESE 18:14:54 10° SSE visible
